カタログに戻る

THOR 1

MARCOPOLO 2

運用中通信GEO
NORAD 20762·PAYLOAD·🇳🇴 Norway

打ち上げ Aug 18, 1990 から Cape Canaveral Space Force Station

Loading…

TLE

最新Source: Space-Track

元期: Sep 14, 2026, 12:11 UTC

1 20762U 90074A   26257.50770862 -.00000073  00000-0  00000-0 0  9995
2 20762  14.6154   5.9604 0005531 233.6365 316.5579  0.99209394 47097

AllMySatでTHOR 1をリアルタイム追跡

Download on the App Store